Location: Austin
(30.3000°N, 97.7500°W)
Time: 12:13:23
(UTC-05:00)

Cosmos 2142 Rocket - Pass Details

Date: 03 April 2024
Orbit: 951 x 1005 km, 83.0° (Epoch: 21 April)

Event Time Altitude Azimuth Distance (km) Brightness Sun altitude
Rises 05:12:07 0° 350° (N) 3,629 7.7 -26.7°
Reaches altitude 10° 05:14:38 10° 347° (NNW) 2,679 6.9 -26.3°
Maximum altitude 05:20:39 65° 268° (W) 1,043 4.3 -25.1°
Enters shadow 05:21:47 54° 220° (SW) 1,142 4.5 -24.8°
